Delta, CO

8:08 PM MDT on April 25, 2018 (GMT -0600)
Delta

Weather History for KAJZ - September, 2013

Change the Weather History Date:

Sunday, September 8, 2013

  Actual Average (KMTJ) Record (KMTJ)
Temperature  
Mean Temperature 76 °F -  
Max Temperature 86 °F 77 °F 87 °F (1998)
Min Temperature 67 °F 48 °F 41 °F (2001)
Cooling Degree Days 12    
Growing Degree Days 26 (Base 50)    
Moisture  
Dew Point 50 °F    
Average Humidity 41    
Maximum Humidity 64    
Minimum Humidity 23    
Precipitation  
Precipitation 0.00 in - - ()
Sea Level Pressure  
Sea Level Pressure 30.08 in    
Wind  
Wind Speed 6 mph (NNW)    
Max Wind Speed 25 mph    
Max Gust Speed 31 mph    
Visibility 9 miles    
Events Thunderstorm    
Averages and records for this station are not official NWS values.
T = Trace of Precipitation, MM = Missing Value Source: NWS Daily Summary

Daily Weather History Graph

Daily Weather History Graph

Search for Another Location

Airport or City:

Astronomy

Sep. 08, 2013 Rise Set
Actual Time 6:47 AM MDT 7:31 PM MDT
Civil Twilight 6:20 AM MDT 7:57 PM MDT
Nautical Twilight 5:48 AM MDT 8:29 PM MDT
Astronomical Twilight 5:16 AM MDT 9:02 PM MDT
Moon 10:05 AM MDT (9/8) 9:11 PM MDT (9/8)
Length of Visible Light 13h 37m
Length of Day
12h 43m
Waxing Crescent, 11% of the Moon is Illuminated
Sep 8
Waxing Crescent
Sep 12
First Quarter
Sep 19
Full
Sep 26
Last Quarter
Oct 4
New

Hourly Weather History & Observations

Time (MDT) Temp. Dew Point Humidity Pressure Visibility Wind Dir Wind Speed Gust Speed Precip Events Conditions
12:15 AM 72.7 °F 49.3 °F 44% 30.11 in 7.0 mi Calm Calm - N/A   Mostly Cloudy
12:35 AM 75.7 °F 45.5 °F 34% 30.13 in 10.0 mi Calm Calm - N/A   Scattered Clouds
12:55 AM 76.5 °F 45.5 °F 33% 30.13 in 10.0 mi North 3.5 mph - N/A   Clear
1:15 AM 75.6 °F 46.9 °F 36% 30.13 in 10.0 mi North 3.5 mph - N/A   Clear
1:35 AM 74.5 °F 47.8 °F 39% 30.13 in 10.0 mi NNE 5.8 mph - N/A   Mostly Cloudy
1:55 AM 70.9 °F 55.8 °F 59% 30.13 in 7.0 mi NNE 6.9 mph - N/A   Mostly Cloudy
2:15 AM 73.6 °F 52.0 °F 47% 30.13 in 10.0 mi North 6.9 mph - N/A   Mostly Cloudy
2:35 AM 72.9 °F 50.2 °F 45% 30.13 in 10.0 mi NE 5.8 mph - N/A   Scattered Clouds
2:55 AM 72.1 °F 49.6 °F 45% 30.13 in 10.0 mi NE 6.9 mph - N/A   Clear
3:15 AM 73.0 °F 49.3 °F 43% 30.12 in 10.0 mi NE 6.9 mph - N/A   Clear
3:35 AM 72.1 °F 49.8 °F 45% 30.12 in 10.0 mi ENE 8.1 mph - N/A   Clear
3:55 AM 71.1 °F 50.0 °F 47% 30.13 in 10.0 mi East 6.9 mph - N/A   Clear
4:15 AM 69.3 °F 51.1 °F 52% 30.13 in 10.0 mi ESE 4.6 mph - N/A   Clear
4:35 AM 68.5 °F 51.8 °F 55% 30.13 in 10.0 mi ENE 3.5 mph - N/A   Clear
4:55 AM 70.3 °F 49.6 °F 48% 30.14 in 10.0 mi ENE 9.2 mph - N/A   Scattered Clouds
5:15 AM 70.0 °F 50.2 °F 49% 30.14 in 10.0 mi ENE 6.9 mph - N/A   Scattered Clouds
5:35 AM 69.8 °F 49.5 °F 48% 30.13 in 10.0 mi NE 5.8 mph - N/A   Clear
5:55 AM 68.4 °F 49.5 °F 51% 30.14 in 10.0 mi East 8.1 mph - N/A   Clear
6:15 AM 68.5 °F 50.0 °F 52% 30.14 in 10.0 mi East 5.8 mph - N/A   Scattered Clouds
6:35 AM 68.0 °F 50.0 °F 52% 30.13 in 10.0 mi NNE 8.1 mph - N/A   Scattered Clouds
6:55 AM 67.6 °F 51.1 °F 55% 30.13 in 7.0 mi NNE 8.1 mph - N/A   Scattered Clouds
7:15 AM 68.0 °F 49.6 °F 52% 30.13 in 10.0 mi ESE 4.6 mph - N/A   Clear
7:35 AM 68.2 °F 50.0 °F 52% 30.13 in 7.0 mi ESE 4.6 mph - N/A   Clear
7:55 AM 68.2 °F 50.4 °F 53% 30.13 in 10.0 mi East 4.6 mph - N/A   Clear
8:15 AM 70.7 °F 49.6 °F 47% 30.13 in 10.0 mi ENE 4.6 mph - N/A   Clear
8:35 AM 73.2 °F 49.5 °F 43% 30.13 in 7.0 mi East 5.8 mph - N/A   Clear
8:55 AM 74.5 °F 48.2 °F 39% 30.13 in 7.0 mi ENE 4.6 mph - N/A   Clear
9:15 AM 75.0 °F 50.5 °F 42% 30.13 in 10.0 mi SSE 4.6 mph - N/A   Clear
9:35 AM 73.4 °F 51.1 °F 45% 30.13 in 7.0 mi South 3.5 mph - N/A   Clear
9:55 AM 75.6 °F 50.4 °F 41% 30.13 in 10.0 mi South 4.6 mph - N/A   Clear
10:15 AM 77.2 °F 49.1 °F 37% 30.12 in 10.0 mi Calm Calm - N/A   Clear
10:35 AM 79.3 °F 46.8 °F 32% 30.11 in 7.0 mi Calm Calm - N/A   Clear
10:55 AM 81.1 °F 46.6 °F 30% 30.11 in 7.0 mi Calm Calm - N/A   Clear
11:15 AM 82.4 °F 46.2 °F 28% 30.10 in 10.0 mi Calm Calm - N/A   Clear
11:35 AM 83.3 °F 45.7 °F 27% 30.09 in 10.0 mi Calm Calm - N/A   Clear
11:55 AM 84.0 °F 46.2 °F 27% 30.08 in 10.0 mi West 3.5 mph - N/A   Clear
12:15 PM 85.3 °F 45.3 °F 25% 30.08 in 10.0 mi SSE 5.8 mph - N/A   Clear
12:35 PM 86.7 °F 45.0 °F 23% 30.07 in 10.0 mi Calm Calm - N/A   Clear
12:55 PM 85.6 °F 45.1 °F 24% 30.06 in 10.0 mi SW 4.6 mph - N/A   Clear
1:15 PM 85.3 °F 45.0 °F 24% 30.05 in 10.0 mi Calm Calm - N/A   Clear
1:35 PM 86.0 °F 45.9 °F 25% 30.04 in 7.0 mi SW 5.8 mph - N/A   Scattered Clouds
1:55 PM 86.7 °F 45.7 °F 24% 30.04 in 10.0 mi WNW 5.8 mph 16.1 mph N/A   Scattered Clouds
2:15 PM 86.9 °F 45.9 °F 24% 30.03 in 7.0 mi West 11.5 mph - N/A   Clear
2:35 PM 85.6 °F 46.0 °F 25% 30.03 in 7.0 mi WSW 13.8 mph 23.0 mph N/A   Clear
2:55 PM 84.4 °F 46.4 °F 26% 30.02 in 7.0 mi West 12.7 mph 18.4 mph N/A   Scattered Clouds
3:15 PM 83.3 °F 46.6 °F 28% 30.00 in 7.0 mi West 15.0 mph 19.6 mph N/A   Mostly Cloudy
3:35 PM 84.2 °F 46.9 °F 27% 30.01 in 7.0 mi WSW 6.9 mph - N/A   Scattered Clouds
3:55 PM 84.2 °F 47.7 °F 28% 30.01 in 7.0 mi WSW 15.0 mph 21.9 mph N/A   Scattered Clouds
4:15 PM 83.3 °F 47.8 °F 29% 30.01 in 5.0 mi West 11.5 mph 23.0 mph N/A   Mostly Cloudy
4:35 PM 83.3 °F 48.9 °F 30% 30.00 in 10.0 mi West 20.7 mph 25.3 mph N/A   Scattered Clouds
4:55 PM 83.8 °F 51.4 °F 33% 30.00 in 7.0 mi West 25.3 mph 31.1 mph N/A   Clear
5:15 PM 81.7 °F 52.0 °F 36% 30.00 in 7.0 mi West 19.6 mph 31.1 mph N/A   Scattered Clouds
5:35 PM 82.2 °F 49.5 °F 32% 30.00 in 10.0 mi West 10.4 mph 23.0 mph N/A   Clear
5:55 PM 81.3 °F 48.2 °F 31% 30.00 in 7.0 mi West 9.2 mph - N/A   Clear
6:15 PM 81.3 °F 48.0 °F 31% 30.02 in 10.0 mi WSW 6.9 mph 10.4 mph N/A   Scattered Clouds
6:35 PM 80.6 °F 48.0 °F 32% 30.02 in 4.0 mi WSW 9.2 mph - N/A   Mostly Cloudy
6:55 PM 79.2 °F 49.5 °F 35% 30.02 in 7.0 mi SSW 11.5 mph - N/A   Mostly Cloudy
7:15 PM 76.5 °F 51.6 °F 42% 30.02 in 7.0 mi WSW 12.7 mph 18.4 mph N/A   Overcast
7:35 PM 75.9 °F 52.2 °F 43% 30.02 in 10.0 mi WSW 9.2 mph - N/A   Scattered Clouds
7:55 PM 77.0 °F 48.6 °F 37% 30.02 in 10.0 mi West 6.9 mph - N/A   Clear
8:15 PM 72.9 °F 55.6 °F 55% 30.04 in 7.0 mi SSW 10.4 mph - N/A Thunderstorm Clear
8:35 PM 72.3 °F 54.7 °F 54% 30.04 in 10.0 mi SSW 11.5 mph - N/A   Clear
8:55 PM 74.3 °F 52.3 °F 46% 30.04 in 10.0 mi WSW 8.1 mph - N/A   Scattered Clouds
9:15 PM 74.8 °F 51.6 °F 44% 30.03 in 10.0 mi West 5.8 mph - N/A   Mostly Cloudy
9:35 PM 74.5 °F 52.2 °F 46% 30.04 in 10.0 mi SSE 5.8 mph - N/A   Scattered Clouds
9:55 PM 71.1 °F 55.4 °F 58% 30.05 in 10.0 mi SSW 9.2 mph - N/A   Scattered Clouds
10:15 PM 72.5 °F 53.6 °F 51% 30.05 in 10.0 mi NNE 5.8 mph - N/A   Mostly Cloudy
10:35 PM 69.1 °F 55.2 °F 61% 30.06 in 10.0 mi NNW 4.6 mph - N/A   Scattered Clouds
10:55 PM 69.6 °F 55.2 °F 60% 30.06 in 10.0 mi NNE 5.8 mph - N/A   Mostly Cloudy
11:15 PM 68.9 °F 55.4 °F 62% 30.07 in 10.0 mi NE 5.8 mph - N/A   Scattered Clouds
11:35 PM 69.1 °F 55.4 °F 62% 30.07 in 10.0 mi NE 4.6 mph - N/A   Scattered Clouds
11:55 PM 68.4 °F 55.9 °F 64% 30.06 in 10.0 mi NNE 5.8 mph - N/A   Scattered Clouds